Tulsa, OK

5:30 PM CST on February 05, 2016 (GMT -0600)
Tulsa International

Weather History for KTUL - July, 2014

Change the Weather History Date:

Monday, July 21, 2014

  Actual Average Record
Temperature  
Mean Temperature 82 °F 83 °F  
Max Temperature 92 °F 94 °F 109 °F (1939)
Min Temperature 71 °F 73 °F 55 °F (1970)
Cooling Degree Days 17 18  
Month to date cooling degree days 263 368  
Year to date cooling degree days 937 981  
Since 1 June cooling degree days 666 747  
Growing Degree Days 31 (Base 50)    
Moisture  
Dew Point 71 °F    
Average Humidity 75    
Maximum Humidity 90    
Minimum Humidity 59    
Precipitation  
Precipitation 0.00 in 0.11 in 3.40 in (1898)
Month to date precipitation 2.40 2.40  
Year to date precipitation 15.52 23.62  
Sea Level Pressure  
Sea Level Pressure 29.98 in    
Wind  
Wind Speed 10 mph (South)    
Max Wind Speed 16 mph    
Max Gust Speed 20 mph    
Visibility 10 miles    
Events      
T = Trace of Precipitation, MM = Missing Value Source: NWS Daily Summary

Daily Weather History Graph

Daily Weather History Graph

Search for Another Location

Airport or City:

Trip Planner

Search our weather history database for the weather conditions in past years. The results will help you decide how hot, cold, wet, or windy it might be!

Date:

Astronomy

Jul. 21, 2014 Rise Set
Actual Time 6:22 AM CDT 8:37 PM CDT
Civil Twilight 5:52 AM CDT 9:06 PM CDT
Nautical Twilight 5:17 AM CDT 9:42 PM CDT
Astronomical Twilight 4:38 AM CDT 10:21 PM CDT
Moon 2:11 AM CDT (7/21) 4:22 PM CDT (7/21)
Length of Visible Light 15h 13m
Length of Day
14h 15m
Waning Crescent, 24% of the Moon is Illuminated
Jul 21
Waning Crescent
Jul 26
New
Aug 3
First Quarter
Aug 10
Full
Aug 17
Last Quarter

Hourly Weather History & Observations

Time (CDT) Temp. Heat Index Dew Point Humidity Pressure Visibility Wind Dir Wind Speed Gust Speed Precip Events Conditions
12:53 AM 75.0 °F - 66.9 °F 76% 29.96 in 10.0 mi SSE 10.4 mph - N/A   Clear
1:53 AM 73.9 °F - 66.9 °F 79% 29.96 in 10.0 mi SSE 6.9 mph - N/A   Clear
2:53 AM 73.0 °F - 68.0 °F 84% 29.95 in 10.0 mi SSE 6.9 mph - N/A   Clear
3:53 AM 72.0 °F - 68.0 °F 87% 29.95 in 10.0 mi SSE 6.9 mph - N/A   Clear
4:53 AM 72.0 °F - 68.0 °F 87% 29.96 in 10.0 mi South 9.2 mph - N/A   Clear
5:53 AM 71.1 °F - 66.9 °F 87% 29.98 in 10.0 mi SSE 6.9 mph - N/A   Clear
6:53 AM 71.1 °F - 66.9 °F 87% 30.00 in 10.0 mi SSE 6.9 mph - N/A   Clear
7:53 AM 73.0 °F - 66.9 °F 81% 30.02 in 10.0 mi South 10.4 mph - N/A   Clear
8:53 AM 75.9 °F - 66.9 °F 74% 30.04 in 10.0 mi South 12.7 mph - N/A   Scattered Clouds
9:53 AM 79.0 °F - 69.1 °F 72% 30.03 in 10.0 mi South 12.7 mph - N/A   Scattered Clouds
10:53 AM 82.0 °F 86.3 °F 71.1 °F 69% 30.04 in 10.0 mi South 13.8 mph - N/A   Scattered Clouds
11:53 AM 84.0 °F 89.6 °F 72.0 °F 67% 30.03 in 10.0 mi South 12.7 mph 18.4 mph N/A   Scattered Clouds
12:53 PM 87.1 °F 94.5 °F 73.0 °F 63% 30.02 in 10.0 mi South 12.7 mph - N/A   Mostly Cloudy
1:53 PM 89.1 °F 98.0 °F 73.9 °F 61% 30.00 in 10.0 mi South 11.5 mph - N/A   Mostly Cloudy
2:53 PM 90.0 °F 100.2 °F 75.0 °F 61% 29.99 in 10.0 mi SSE 10.4 mph - N/A   Mostly Cloudy
3:53 PM 91.0 °F 101.6 °F 75.0 °F 59% 29.97 in 10.0 mi South 10.4 mph - N/A   Mostly Cloudy
4:53 PM 91.9 °F 103.2 °F 75.0 °F 58% 29.96 in 10.0 mi South 12.7 mph - N/A   Mostly Cloudy
5:53 PM 91.0 °F 101.6 °F 75.0 °F 59% 29.95 in 10.0 mi SSE 10.4 mph - N/A   Scattered Clouds
6:53 PM 90.0 °F 99.0 °F 73.9 °F 59% 29.94 in 10.0 mi South 12.7 mph - N/A   Partly Cloudy
7:53 PM 88.0 °F 96.5 °F 73.9 °F 63% 29.94 in 9.0 mi South 11.5 mph - N/A   Clear
8:53 PM 86.0 °F 91.5 °F 71.1 °F 61% 29.95 in 10.0 mi South 11.5 mph - N/A   Partly Cloudy
9:53 PM 84.9 °F 90.7 °F 72.0 °F 65% 29.96 in 10.0 mi South 10.4 mph - N/A   Scattered Clouds
10:53 PM 82.9 °F 88.0 °F 72.0 °F 69% 29.98 in 9.0 mi SSE 8.1 mph - N/A   Partly Cloudy
11:53 PM 82.0 °F 87.4 °F 73.0 °F 74% 30.00 in 9.0 mi SSE 5.8 mph - N/A   Mostly Cloudy